Hlavní strana
METAR-TAF:

METAR-TAF

Letiště :

Peachtree City Airport (Falcon Field)

Atlanta, Georgie, Spojené státy americké

zeměpisná šířka: 33-21-19N, zeměpisná délka: 084-34-01W, výška: 246 m

Aktuální stav počasí

Zpráva byla vytvořena před 1 hodinou a 0 minutami, v 06:53 UTC
Východojihovýchodní vítr 3 kt
Teplota 10°C
Vlhkost vzduchu 82%
Tlak 1025 hPa
Viditelnost: 16.1 km
Zataženo ve výšce 6000 ft

METAR: KFFC 080653Z AUTO 11003KT 10SM OVC060 10/07 A3027 RMK AO2 SLP251 T01000067

Čas: 02:53 (07:53 UTC)


TAF: chybějící

Stav a předpovědi počasí z více než 4 000 letišť (zprávy METAR a TAF).

Červené a žluté tečky na mapě představují dostupné meteorologické stanice.

Když kurzor umístíte na tečku, zobrazí se název stanice.

Pak kliknutím zobrazíte stav a předpověď počasí.

Chcete-li změnit mapu, kliknutím na zelené tlačítko se znaménkem +mapu přiblížíte, kliknutím na zelené tlačítko se znaménkem – mapu oddálíte a kliknutím na zelené šipky přejdete na sousední mapy.


METAR-TAF: